Location: Newark
(11.2914°S, 14.4718°E)
Time: 11:52:50
(UTC+00:00)

A-11 Canister half - Visible Passes

Search period start: 22 September 2019 00:00
Search period end: 02 October 2019 00:00
Orbit: 1513 x 1686 km, 47.2° (Epoch: 19 September)

Date Brightness Start Highest point End Pass type
(mag) Time Alt. Az. Time Alt. Az. Time Alt. Az.
22 Sep 11.3 01:56:29 10° SSE 01:59:26 11° SSE 02:02:22 10° SE visible
22 Sep 9.9 03:56:43 10° SSW 04:06:21 51° SE 04:15:36 10° ENE visible
22 Sep 9.7 18:58:02 10° WNW 19:07:22 50° SW 19:15:31 16° SSE visible
22 Sep 11.3 21:11:29 10° SW 21:13:51 11° SSW 21:13:51 11° SSW visible
23 Sep 11.3 01:34:36 10° SSE 01:36:16 10° SSE 01:37:56 10° SE visible
23 Sep 10.0 03:33:50 10° SSW 03:43:23 47° SE 03:52:33 10° ENE visible
23 Sep 9.7 18:34:59 10° WNW 18:44:24 54° SW 18:54:12 10° SSE visible
23 Sep 11.2 20:47:27 10° SW 20:51:11 12° SSW 20:53:48 11° SSW visible
24 Sep 10.1 03:10:59 10° SSW 03:20:24 43° SE 03:29:28 10° ENE visible
24 Sep 9.6 18:11:57 10° NW 18:21:26 58° SW 18:31:19 10° SSE visible
24 Sep 11.2 20:23:37 10° WSW 20:28:03 13° SSW 20:32:33 10° S visible
25 Sep 10.1 02:48:07 10° SSW 02:57:24 40° SE 03:06:21 10° ENE visible
25 Sep 9.5 17:48:57 10° NW 17:58:28 63° SW 18:08:24 10° SSE visible
25 Sep 11.2 19:59:54 10° WSW 20:04:55 15° SSW 20:10:01 10° S visible
26 Sep 10.2 02:25:17 10° SSW 02:34:24 37° SE 02:43:13 10° ENE visible
26 Sep 9.5 17:25:59 10° NW 17:35:31 68° SW 17:45:29 10° SE visible
26 Sep 11.2 19:36:17 10° WSW 19:41:48 16° SW 19:47:26 10° S visible
27 Sep 10.3 02:03:34 13° SSW 02:11:24 34° SE 02:20:03 10° ENE visible
27 Sep 9.2 04:06:46 10° SW 04:16:31 58° NW 04:25:54 10° NNE visible
27 Sep 9.4 17:03:01 10° NW 17:12:35 73° SW 17:22:34 10° SE visible
27 Sep 11.1 19:12:44 10° WSW 19:18:42 17° SW 19:24:48 10° S visible
28 Sep 10.3 01:43:16 21° S 01:48:22 32° SE 01:56:50 10° ENE visible
28 Sep 9.1 03:43:42 10° SW 03:53:35 63° NW 04:03:06 10° NNE visible
28 Sep 11.1 18:49:15 10° WSW 18:55:37 19° SW 19:02:08 10° S visible
29 Sep 10.4 01:23:08 27° SSE 01:25:21 30° SE 01:33:37 10° E visible
29 Sep 9.0 03:21:28 13° SW 03:30:40 68° NW 03:40:17 10° NNE visible
29 Sep 11.1 18:25:50 10° W 18:32:31 20° SW 18:39:26 10° S visible
30 Sep 10.5 01:03:05 27° SE 01:03:05 27° SE 01:10:21 10° E visible
30 Sep 9.0 03:01:26 27° SW 03:07:45 74° NW 03:17:26 10° NNE visible
30 Sep 11.0 18:02:27 10° W 18:09:28 22° SW 18:16:42 10° S visible
01 Oct 10.8 00:43:02 21° ESE 00:43:02 21° ESE 00:47:03 10° E visible
01 Oct 8.9 02:41:22 48° SW 02:44:48 80° NW 02:54:35 10° NE visible
01 Oct 11.0 17:39:06 10° W 17:46:24 24° SW 17:53:58 10° S visible
